Location: Cañada de la Miga
(34.7595°N, 106.2317°W)
Time: 23:09:40
(UTC+00:00)

Transit 4A - Pass Details

Date: 04 December 2021
Orbit: 864 x 980 km, 66.8° (Epoch: 17 January)

Event Time Altitude Azimuth Distance (km) Brightness Sun altitude
Rises 10:06:21 0° 346° (NNW) 3,618 - -46.6°
Reaches altitude 10° 10:09:36 10° 3° (N) 2,689 - -46.0°
Maximum altitude 10:14:13 21° 50° (NE) 2,032 - -45.0°
Exits shadow 10:15:40 19° 68° (ENE) 2,112 10.2 -44.7°
Drops below altitude 10° 10:18:52 10° 97° (E) 2,720 10.9 -44.1°
Sets 10:22:08 0° 113° (ESE) 3,671 11.7 -43.4°
